ASA4T PAJN-PACV

Flight info

Callsign ASA4T
Flight time 1h 1m
Altitude 32000
Route ASORT3 ASORT IKWEY
Aircraft B738/M-SDE2E3FGHIRWXY/LB1

Departure

Time 2026-04-28 15:12
Airport Juneau International Airport (PAJN)

Arrival

Time 2026-04-28 16:13
Airport Merle K (Mudhole) Smith Airport (PACV)
Time Latitude Longitude Altitude Speed Heading
2026-04-28 14:50 58.35885 -134.58712 34 ft 0 kts
2026-04-28 15:04 58.35883 -134.58713 31 ft 3 kts
2026-04-28 15:05 58.35858 -134.58711 34 ft 4 kts 347°
2026-04-28 15:05 58.35837 -134.58689 33 ft 4 kts 300°
2026-04-28 15:05 58.35830 -134.58648 34 ft 1 kts 275°
2026-04-28 15:05 58.35830 -134.58640 34 ft 0 kts 275°
2026-04-28 15:08 58.35830 -134.58641 34 ft 1 kts 275°
2026-04-28 15:08 58.35830 -134.58646 34 ft 0 kts 275°
2026-04-28 15:08 58.35829 -134.58657 34 ft 3 kts 260°
2026-04-28 15:09 58.35785 -134.58723 34 ft 11 kts 220°
2026-04-28 15:09 58.35784 -134.58894 32 ft 15 kts 285°
2026-04-28 15:09 58.35809 -134.59066 34 ft 13 kts 285°
2026-04-28 15:09 58.35823 -134.59175 34 ft 13 kts 284°
2026-04-28 15:10 58.35854 -134.59392 33 ft 12 kts 285°
2026-04-28 15:10 58.35874 -134.59546 34 ft 12 kts 275°
2026-04-28 15:10 58.35831 -134.59653 33 ft 9 kts 192°
2026-04-28 15:10 58.35780 -134.59625 35 ft 8 kts 135°
2026-04-28 15:11 58.35762 -134.59530 33 ft 8 kts 104°
2026-04-28 15:11 58.35743 -134.59382 36 ft 30 kts 104°
2026-04-28 15:11 58.35628 -134.58531 31 ft 101 kts 105°
2026-04-28 15:11 58.35396 -134.56876 45 ft 155 kts 105°
2026-04-28 15:12 58.35081 -134.54792 591 ft 167 kts 108°
2026-04-28 15:12 58.34703 -134.52656 1280 ft 175 kts 111°
2026-04-28 15:12 58.34045 -134.50552 1619 ft 203 kts 136°
2026-04-28 15:12 58.32769 -134.49114 1767 ft 226 kts 156°
2026-04-28 15:13 58.31326 -134.47666 2267 ft 239 kts 147°
2026-04-28 15:13 58.29952 -134.45843 3203 ft 241 kts 144°
2026-04-28 15:13 58.28585 -134.43914 3999 ft 248 kts 146°
2026-04-28 15:13 58.26998 -134.42645 4728 ft 252 kts 174°
2026-04-28 15:14 58.25296 -134.43035 5525 ft 252 kts 205°
2026-04-28 15:14 58.23920 -134.44985 6440 ft 244 kts 235°
2026-04-28 15:14 58.23260 -134.47906 7274 ft 245 kts 263°
2026-04-28 15:14 58.23422 -134.51146 8028 ft 250 kts 284°
2026-04-28 15:15 58.23900 -134.54354 8780 ft 254 kts 280°
2026-04-28 15:15 58.24128 -134.56520 9294 ft 255 kts 279°
2026-04-28 15:15 58.24559 -134.61024 10313 ft 262 kts 278°
2026-04-28 15:15 58.24890 -134.64505 10637 ft 283 kts 278°
2026-04-28 15:16 58.25259 -134.68330 10844 ft 306 kts 278°
2026-04-28 15:16 58.25661 -134.72441 11115 ft 325 kts 278°
2026-04-28 15:16 58.26085 -134.76723 11720 ft 331 kts 278°
2026-04-28 15:16 58.26517 -134.81041 12477 ft 334 kts 279°
2026-04-28 15:17 58.26955 -134.85396 13237 ft 337 kts 279°
2026-04-28 15:17 58.27397 -134.89807 14000 ft 342 kts 279°
2026-04-28 15:17 58.27837 -134.94210 14684 ft 345 kts 279°
2026-04-28 15:17 58.28287 -134.98732 15398 ft 349 kts 279°
2026-04-28 15:18 58.28741 -135.03304 16109 ft 353 kts 279°
2026-04-28 15:18 58.29199 -135.07931 16811 ft 357 kts 279°
2026-04-28 15:18 58.29659 -135.12598 17491 ft 361 kts 279°
2026-04-28 15:18 58.30119 -135.17282 18172 ft 365 kts 279°
2026-04-28 15:19 58.30588 -135.22064 18819 ft 370 kts 279°
2026-04-28 15:19 58.31060 -135.26910 19456 ft 372 kts 278°
2026-04-28 15:19 58.31527 -135.31710 20103 ft 374 kts 278°
2026-04-28 15:19 58.31999 -135.36602 20752 ft 376 kts 278°
2026-04-28 15:20 58.32472 -135.41523 21382 ft 379 kts 278°
2026-04-28 15:20 58.32946 -135.46484 22013 ft 381 kts 278°
2026-04-28 15:20 58.33421 -135.51464 22630 ft 383 kts 277°
2026-04-28 15:20 58.33891 -135.56421 23170 ft 387 kts 277°
2026-04-28 15:21 58.34371 -135.61490 23748 ft 389 kts 277°
2026-04-28 15:21 58.34851 -135.66572 24256 ft 391 kts 277°
2026-04-28 15:21 58.35332 -135.71690 24714 ft 394 kts 277°
2026-04-28 15:21 58.35815 -135.76864 25154 ft 397 kts 277°
2026-04-28 15:22 58.36428 -135.81958 25584 ft 403 kts 283°
2026-04-28 15:22 58.37479 -135.86949 25996 ft 410 kts 292°
2026-04-28 15:22 58.38766 -135.91818 26449 ft 413 kts 292°
2026-04-28 15:22 58.40081 -135.96732 26834 ft 416 kts 293°
2026-04-28 15:23 58.41403 -136.01669 27245 ft 418 kts 292°
2026-04-28 15:23 58.42711 -136.06580 27628 ft 422 kts 292°
2026-04-28 15:23 58.44073 -136.11600 27908 ft 429 kts 297°
2026-04-28 15:23 58.45590 -136.16494 28325 ft 427 kts 292°
2026-04-28 15:24 58.46841 -136.21640 28692 ft 426 kts 289°
2026-04-28 15:24 58.48054 -136.26825 29163 ft 427 kts 290°
2026-04-28 15:24 58.49320 -136.31934 29736 ft 425 kts 291°
2026-04-28 15:24 58.50597 -136.36938 30306 ft 423 kts 291°
2026-04-28 15:25 58.51900 -136.41979 30735 ft 423 kts 291°
2026-04-28 15:25 58.53209 -136.47024 31169 ft 422 kts 291°
2026-04-28 15:25 58.54506 -136.52045 31619 ft 420 kts 291°
2026-04-28 15:25 58.55802 -136.57077 32045 ft 419 kts 291°
2026-04-28 15:26 58.57094 -136.62109 32245 ft 421 kts 291°
2026-04-28 15:26 58.59675 -136.72219 32243 ft 422 kts 291°
2026-04-28 15:27 58.62219 -136.82260 32244 ft 422 kts 291°
2026-04-28 15:27 58.64773 -136.92369 32247 ft 420 kts 291°
2026-04-28 15:28 58.67316 -137.02489 32232 ft 419 kts 291°
2026-04-28 15:28 58.69843 -137.12597 32217 ft 420 kts 291°
2026-04-28 15:29 58.72364 -137.22729 32218 ft 421 kts 290°
2026-04-28 15:29 58.74880 -137.32845 32208 ft 421 kts 290°
2026-04-28 15:30 58.77396 -137.43044 32214 ft 423 kts 290°
2026-04-28 15:30 58.79921 -137.53361 32228 ft 425 kts 289°
2026-04-28 15:31 58.82443 -137.63692 32212 ft 425 kts 289°
2026-04-28 15:31 58.84960 -137.74028 32212 ft 425 kts 289°
2026-04-28 15:32 58.87456 -137.84330 32195 ft 425 kts 289°
2026-04-28 15:32 58.89955 -137.94702 32210 ft 424 kts 289°
2026-04-28 15:33 58.92440 -138.05066 32189 ft 424 kts 289°
2026-04-28 15:33 58.94930 -138.15324 32198 ft 424 kts 289°
2026-04-28 15:34 58.97473 -138.25705 32217 ft 433 kts 289°
2026-04-28 15:34 59.00086 -138.36439 32199 ft 447 kts 289°
2026-04-28 15:35 59.02749 -138.47433 32191 ft 451 kts 289°
2026-04-28 15:35 59.06748 -138.64033 32187 ft 451 kts 289°
2026-04-28 15:36 59.09395 -138.75106 32185 ft 450 kts 289°
2026-04-28 15:36 59.11997 -138.86055 32179 ft 448 kts 288°
2026-04-28 15:37 59.14602 -138.97075 32186 ft 447 kts 288°
2026-04-28 15:37 59.16761 -139.06252 32167 ft 447 kts 288°
2026-04-28 15:38 59.19337 -139.17254 32163 ft 445 kts 288°
2026-04-28 15:38 59.21902 -139.28269 32165 ft 445 kts 288°
2026-04-28 15:39 59.24457 -139.39291 32164 ft 445 kts 288°
2026-04-28 15:39 59.27002 -139.50323 32188 ft 446 kts 287°
2026-04-28 15:40 59.29529 -139.61342 32167 ft 447 kts 287°
2026-04-28 15:40 59.32069 -139.72471 32155 ft 447 kts 287°
2026-04-28 15:41 59.34595 -139.83598 32152 ft 447 kts 287°
2026-04-28 15:41 59.37120 -139.94776 32152 ft 448 kts 287°
2026-04-28 15:42 59.39635 -140.05972 32195 ft 450 kts 285°
2026-04-28 15:42 59.42150 -140.17220 32149 ft 451 kts 285°
2026-04-28 15:43 59.44665 -140.28547 32139 ft 452 kts 285°
2026-04-28 15:43 59.47173 -140.39898 32135 ft 453 kts 285°
2026-04-28 15:44 59.49663 -140.51218 32137 ft 454 kts 285°
2026-04-28 15:44 59.52160 -140.62643 32136 ft 454 kts 285°
2026-04-28 15:45 59.54657 -140.74121 32135 ft 456 kts 284°
2026-04-28 15:45 59.57138 -140.85569 32118 ft 445 kts 284°
2026-04-28 15:46 59.59520 -140.96578 32117 ft 431 kts 284°
2026-04-28 15:46 59.61856 -141.07530 32121 ft 433 kts 284°
2026-04-28 15:47 59.64188 -141.18530 32110 ft 435 kts 284°
2026-04-28 15:47 59.66512 -141.29519 32137 ft 437 kts 283°
2026-04-28 15:48 59.68854 -141.40638 32107 ft 438 kts 283°
2026-04-28 15:48 59.71186 -141.51758 32091 ft 437 kts 283°
2026-04-28 15:49 59.73495 -141.62815 31759 ft 428 kts 283°
2026-04-28 15:49 59.74622 -141.68214 31410 ft 421 kts 282°
2026-04-28 15:49 59.75731 -141.73559 31023 ft 416 kts 282°
2026-04-28 15:50 59.76823 -141.78849 30622 ft 413 kts 282°
2026-04-28 15:50 59.77902 -141.84093 30275 ft 409 kts 281°
2026-04-28 15:50 59.78974 -141.89314 29772 ft 407 kts 281°
2026-04-28 15:50 59.80035 -141.94502 29325 ft 403 kts 281°
2026-04-28 15:51 59.81085 -141.99643 28911 ft 399 kts 281°
2026-04-28 15:51 59.82118 -142.04710 28485 ft 394 kts 281°
2026-04-28 15:51 59.83142 -142.09747 28067 ft 390 kts 281°
2026-04-28 15:51 59.84150 -142.14717 27666 ft 386 kts 281°
2026-04-28 15:52 59.85147 -142.19651 27253 ft 383 kts 281°
2026-04-28 15:52 59.86131 -142.24542 26864 ft 379 kts 281°
2026-04-28 15:52 59.87107 -142.29401 26463 ft 377 kts 281°
2026-04-28 15:52 59.88078 -142.34234 26065 ft 374 kts 281°
2026-04-28 15:53 59.89039 -142.39030 25675 ft 371 kts 281°
2026-04-28 15:53 59.89983 -142.43768 25057 ft 375 kts 281°
2026-04-28 15:53 59.90947 -142.48636 24446 ft 381 kts 280°
2026-04-28 15:53 59.91925 -142.53568 23996 ft 381 kts 281°
2026-04-28 15:54 59.92897 -142.58458 23635 ft 377 kts 281°
2026-04-28 15:54 59.93857 -142.63291 23199 ft 374 kts 281°
2026-04-28 15:54 59.94810 -142.68115 22716 ft 372 kts 281°
2026-04-28 15:54 59.95754 -142.72905 22222 ft 372 kts 281°
2026-04-28 15:55 59.96697 -142.77709 21752 ft 370 kts 281°
2026-04-28 15:55 59.97634 -142.82489 21299 ft 369 kts 281°
2026-04-28 15:55 59.98568 -142.87264 20881 ft 368 kts 282°
2026-04-28 15:55 59.99478 -142.91951 20559 ft 365 kts 282°
2026-04-28 15:56 60.00383 -142.96660 20237 ft 362 kts 281°
2026-04-28 15:56 60.01294 -143.01374 19693 ft 365 kts 282°
2026-04-28 15:56 60.02219 -143.06106 19311 ft 365 kts 283°
2026-04-28 15:56 60.03142 -143.10859 18721 ft 369 kts 283°
2026-04-28 15:57 60.04070 -143.15677 18329 ft 370 kts 283°
2026-04-28 15:57 60.04996 -143.20487 17984 ft 369 kts 283°
2026-04-28 15:57 60.05914 -143.25257 17794 ft 364 kts 283°
2026-04-28 15:57 60.06818 -143.29966 17517 ft 361 kts 283°
2026-04-28 15:58 60.07714 -143.34655 17184 ft 360 kts 283°
2026-04-28 15:58 60.08591 -143.39269 16873 ft 358 kts 283°
2026-04-28 15:58 60.09475 -143.43914 16573 ft 355 kts 283°
2026-04-28 15:58 60.10350 -143.48526 16205 ft 353 kts 283°
2026-04-28 15:59 60.11216 -143.53110 15858 ft 349 kts 283°
2026-04-28 15:59 60.12074 -143.57664 15499 ft 347 kts 283°
2026-04-28 15:59 60.12924 -143.62175 15129 ft 344 kts 283°
2026-04-28 15:59 60.13769 -143.66659 14761 ft 342 kts 283°
2026-04-28 16:00 60.14598 -143.71112 14494 ft 338 kts 283°
2026-04-28 16:00 60.15419 -143.75500 14144 ft 336 kts 283°
2026-04-28 16:00 60.16238 -143.79892 13771 ft 335 kts 283°
2026-04-28 16:00 60.17042 -143.84206 13432 ft 333 kts 283°
2026-04-28 16:01 60.17849 -143.88561 13108 ft 331 kts 283°
2026-04-28 16:01 60.18651 -143.92882 12756 ft 328 kts 282°
2026-04-28 16:01 60.19442 -143.97161 12337 ft 326 kts 282°
2026-04-28 16:01 60.20231 -144.01455 11954 ft 324 kts 282°
2026-04-28 16:02 60.21016 -144.05683 11599 ft 322 kts 282°
2026-04-28 16:02 60.21790 -144.09869 11404 ft 314 kts 283°
2026-04-28 16:02 60.22526 -144.13865 11337 ft 304 kts 283°
2026-04-28 16:02 60.23238 -144.17770 11270 ft 290 kts 282°
2026-04-28 16:03 60.23930 -144.21613 11064 ft 290 kts 282°
2026-04-28 16:03 60.24626 -144.25401 10597 ft 291 kts 283°
2026-04-28 16:03 60.25379 -144.29200 10242 ft 289 kts 282°
2026-04-28 16:03 60.26052 -144.32984 10097 ft 283 kts 281°
2026-04-28 16:04 60.26780 -144.36678 9659 ft 284 kts 283°
2026-04-28 16:04 60.27451 -144.40405 9206 ft 282 kts 281°
2026-04-28 16:04 60.28088 -144.44175 8791 ft 286 kts 282°
2026-04-28 16:04 60.28734 -144.47950 8530 ft 283 kts 283°
2026-04-28 16:05 60.29383 -144.51690 8191 ft 284 kts 282°
2026-04-28 16:05 60.30036 -144.55443 7853 ft 284 kts 281°
2026-04-28 16:05 60.30652 -144.59222 7538 ft 287 kts 282°
2026-04-28 16:05 60.31323 -144.62977 7281 ft 288 kts 283°
2026-04-28 16:06 60.32025 -144.66738 6949 ft 286 kts 284°
2026-04-28 16:06 60.32728 -144.70512 6583 ft 287 kts 284°
2026-04-28 16:06 60.33400 -144.74325 6249 ft 289 kts 284°
2026-04-28 16:06 60.34040 -144.78110 6146 ft 282 kts 283°
2026-04-28 16:07 60.34713 -144.81823 5913 ft 280 kts 286°
2026-04-28 16:07 60.35406 -144.85451 5717 ft 270 kts 284°
2026-04-28 16:07 60.36894 -144.92040 5494 ft 244 kts 290°
2026-04-28 16:08 60.37598 -144.95020 5426 ft 227 kts 291°
2026-04-28 16:08 60.38284 -144.97783 5287 ft 218 kts 289°
2026-04-28 16:08 60.38894 -145.00550 5024 ft 214 kts 288°
2026-04-28 16:09 60.40073 -145.06011 4449 ft 212 kts 289°
2026-04-28 16:09 60.40667 -145.08747 4118 ft 212 kts 289°
2026-04-28 16:09 60.41260 -145.11432 3855 ft 206 kts 293°
2026-04-28 16:10 60.42438 -145.16708 3254 ft 199 kts 289°
2026-04-28 16:10 60.42921 -145.19249 3045 ft 185 kts 287°
2026-04-28 16:10 60.43983 -145.24099 2447 ft 188 kts 291°
2026-04-28 16:11 60.45087 -145.28816 1907 ft 184 kts 290°
2026-04-28 16:11 60.46109 -145.33573 1395 ft 177 kts 293°
2026-04-28 16:12 60.47116 -145.38134 950 ft 172 kts 293°
2026-04-28 16:12 60.47586 -145.40260 693 ft 163 kts 293°
2026-04-28 16:13 60.48520 -145.44484 228 ft 165 kts 294°
2026-04-28 16:13 60.48964 -145.46560 97 ft 151 kts 295°
2026-04-28 16:13 60.49519 -145.48985 87 ft 38 kts 295°
2026-04-28 16:14 60.49592 -145.49327 91 ft 6 kts 167°
2026-04-28 16:14 60.49526 -145.49012 87 ft 14 kts 113°
2026-04-28 16:15 60.49436 -145.48599 86 ft 16 kts 115°
2026-04-28 16:15 60.49391 -145.48405 90 ft 15 kts 115°
2026-04-28 16:15 60.49349 -145.48217 88 ft 14 kts 115°
2026-04-28 16:16 60.49270 -145.47866 90 ft 13 kts 114°
2026-04-28 16:16 60.49233 -145.47700 93 ft 13 kts 113°
2026-04-28 16:17 60.49328 -145.47467 95 ft 12 kts 24°
2026-04-28 16:17 60.49395 -145.47405 93 ft 8 kts 32°
2026-04-28 16:17 60.49422 -145.47313 94 ft 8 kts 83°
2026-04-28 16:17 60.49410 -145.47252 95 ft 0 kts 117°